Location: *
(55.6049°S, 142.1985°W)
Time: 09:14:37
(UTC+00:00)

Lacrosse 5 rocket - Pass Details

Date: 12 May 2021
Orbit: 458 x 636 km, 57.0° (Epoch: 13 June)

Event Time Altitude Azimuth Distance (km) Brightness Sun altitude
Exits shadow 14:44:17 12° 348° (NNW) 1,658 3.6 -20.7°
Drops below altitude 10° 14:44:42 10° 353° (N) 1,762 3.8 -20.7°
Sets 14:47:23 0° 13° (NNE) 2,605 5.0 -20.3°
